Terminal Aerodrome Forecast
Issued by NWS Tulsa, OK

Home | Current Version | Previous Version | Text Only | Print | Product List | Glossary On
Versions: 1 2 3 4 5 6 7 8 9 10 11 12
000
FTUS44 KTSA 301122
TAFFSM
TAF
KFSM 301122Z 3012/3112 07006KT P6SM SCT080
     FM301900 06007KT P6SM SCT050 BKN250 PROB30 3021/3103 4SM -TSRA
      BKN050CB
     FM310300 06004KT P6SM SCT100 BKN250=

USA.gov is the U.S. government's official web portal to all federal, state and local government web resources and services.